Location: Chuathbaluk
(61.5726°N, 159.2454°W)
Time: 16:58:42
(UTC+00:00)

NOAA 15 - Pass Details

Date: 26 January 2021
Orbit: 798 x 812 km, 98.7° (Epoch: 05 March)

Event Time Altitude Azimuth Distance (km) Brightness Sun altitude
Rises 05:15:27 0° 172° (S) 3,307 7.7 -19.4°
Reaches altitude 10° 05:17:48 10° 176° (S) 2,382 7.0 -19.7°
Maximum altitude 05:23:01 61° 256° (WSW) 916 5.1 -20.3°
Drops below altitude 10° 05:28:18 10° 337° (NNW) 2,407 7.3 -20.9°
Sets 05:30:41 0° 341° (NNW) 3,344 8.0 -21.2°
